Location: Fort Wayne
(41.1310°N, 85.1290°W)
Time: 07:26:45
(UTC-04:00)

Cosmos 2056 Rocket - Visible Passes

Search period start: 16 September 2014 00:00
Search period end: 26 September 2014 00:00
Orbit: 744 x 802 km, 74.0° (Epoch: 15 September)

Date Brightness Start Highest point End Pass type
(mag) Time Alt. Az. Time Alt. Az. Time Alt. Az.
16 Sep 4.0 05:14:00 29° S 05:16:26 56° ESE 05:21:25 10° NNE visible
17 Sep 4.8 04:39:45 29° SE 04:40:56 33° E 04:45:27 10° NE visible
17 Sep 4.4 06:20:09 17° WSW 06:23:04 29° WNW 06:27:30 10° N visible
18 Sep 5.6 04:05:24 20° E 04:05:31 20° E 04:09:06 10° NE visible
18 Sep 3.7 05:45:48 37° WSW 05:47:16 47° WNW 05:52:12 10° N visible
19 Sep 6.3 03:30:59 11° E 03:30:59 11° E 03:31:34 10° ENE visible
19 Sep 3.2 05:11:23 78° W 05:11:34 79° WNW 05:16:42 10° NNE visible
19 Sep 5.4 06:53:26 10° WNW 06:54:37 11° NW 06:55:47 10° NW visible
20 Sep 4.1 04:36:54 52° ENE 04:36:54 52° ENE 04:41:00 10° NNE visible
20 Sep 5.0 06:17:17 16° WNW 06:18:34 17° NW 06:21:54 10° NNW visible
21 Sep 5.3 04:02:21 27° ENE 04:02:21 27° ENE 04:05:05 10° NE visible
21 Sep 4.5 05:42:44 27° WNW 05:42:44 27° WNW 05:46:58 10° N visible
22 Sep 6.2 03:27:45 14° ENE 03:27:45 14° ENE 03:28:49 10° NE visible
22 Sep 4.4 05:08:08 36° NNW 05:08:08 36° NNW 05:11:42 10° N visible
23 Sep 4.8 04:33:29 32° N 04:33:29 32° N 04:36:14 10° NNE visible
24 Sep 5.6 03:58:48 22° NNE 03:58:48 22° NNE 04:00:34 10° NNE visible
24 Sep 5.4 05:39:10 15° NW 05:39:10 15° NW 05:41:17 10° NNW visible
25 Sep 6.3 03:24:04 13° NE 03:24:04 13° NE 03:24:42 10° NE visible
25 Sep 5.3 05:04:27 19° NNW 05:04:27 19° NNW 05:06:25 10° N visible
